Stations météo

réclame
Mon MeteoGroup
Kirkwall, Grande-Bretagne (3017): Température de l'air & dewpoint: 08.08.2018 20:00:00 - 14.08.2018 20:00:00 (BST)Kirkwall, Grande-Bretagne (3017): Température de l'air -20cm & Température de l'air -100cm: 08.08.2018 20:00:00 - 14.08.2018 20:00:00 (BST)Kirkwall, Grande-Bretagne (3017): Vitesse du vent: 08.08.2018 20:00:00 - 14.08.2018 20:00:00 (BST)Kirkwall, Grande-Bretagne (3017): Direction du vent: 08.08.2018 20:00:00 - 14.08.2018 20:00:00 (BST)Kirkwall, Grande-Bretagne (3017): reduced air pressure: 08.08.2018 20:00:00 - 14.08.2018 20:00:00 (BST)Kirkwall, Grande-Bretagne (3017): visibility: 08.08.2018 20:00:00 - 14.08.2018 20:00:00 (BST)Kirkwall, Grande-Bretagne (3017): Ensoleillement: 08.08.2018 20:00:00 - 14.08.2018 20:00:00 (BST)Kirkwall, Grande-Bretagne (3017): Quantités de précipitations: 08.08.2018 20:00:00 - 14.08.2018 20:00:00 (BST)
Date & Time tt [°C] td [°C] tt -20cm [°C] tt -100cm [°C] ff [km/h] ff [knt] dd ppp [hPa] vv [km] sd [min] rr [mm]
14.08.2018 20:00:00 - - - - - - - - - - -
14.08.2018 19:00:00 14,0 13,4 - - 18 10 S 1005,7 21 0 0,6
14.08.2018 18:00:00 14,6 13,4 - - 18 10 S 1005,9 40 0 0,0
14.08.2018 17:00:00 15,3 14,0 - - 18 10 S 1006,2 50 0 0,0
14.08.2018 16:00:00 15,3 14,5 - - 13 7 SSW 1006,5 5 0 0,4
14.08.2018 15:00:00 15,5 13,8 - - 18 10 SSW 1006,8 23 6 0,2
14.08.2018 14:00:00 15,0 14,3 - - 11 6 SW 1007,3 45 0 0,2
14.08.2018 13:00:00 14,5 13,7 - - 9 5 SSW 1007,1 18 0 0,4
14.08.2018 12:00:00 15,1 13,7 - - 9 5 SW 1007,5 45 0 0,0
14.08.2018 11:00:00 14,2 13,5 - - 13 7 SSW 1007,4 30 0 0,0
14.08.2018 10:00:00 14,4 14,1 14,7 13,7 4 2 S 1007,1 40 0 0,0
14.08.2018 09:00:00 13,8 13,6 - - 8 4 SW 1007,4 11 0 0,0
14.08.2018 08:00:00 13,5 13,4 - - 5 3 SSW 1007,5 4,2 0 0,2
14.08.2018 07:00:00 13,2 13,1 - - 9 5 S 1007,7 3,9 0 0,2
14.08.2018 06:00:00 12,9 12,7 - - 8 4 SSE 1007,7 5 0 0,0
14.08.2018 05:00:00 12,7 12,4 - - 8 4 SE 1007,8 10 0 0,2
14.08.2018 04:00:00 12,8 12,4 - - 9 5 SSE 1008,0 4,4 0 0,0
14.08.2018 03:00:00 12,7 12,1 - - 9 5 S 1008,6 6 0 0,0
14.08.2018 02:00:00 13,2 11,6 - - 8 4 S 1009,0 35 0 0,0
14.08.2018 01:00:00 13,2 11,9 - - 9 5 S 1009,1 50 - 0,0
14.08.2018 00:00:00 13,1 11,7 - - 11 6 SSE 1009,0 45 0 0,0
13.08.2018 23:00:00 13,2 12,0 - - 9 5 SE 1009,0 35 0 0,0
13.08.2018 22:00:00 13,3 11,9 - - 11 6 SE 1009,2 40 0 0,0
13.08.2018 21:00:00 13,6 11,8 - - 11 6 SE 1009,3 45 0 0,0
13.08.2018 20:00:00 14,0 11,5 - - 13 7 SE 1009,1 50 0 0,0
13.08.2018 19:00:00 14,2 11,1 - - 15 8 SE 1009,1 50 0 0,0
13.08.2018 18:00:00 15,1 10,6 - - 16 9 ESE 1009,2 50 18 0,0
13.08.2018 17:00:00 15,7 10,4 - - 18 10 SE 1009,5 40 36 0,0
13.08.2018 16:00:00 15,5 10,2 - - 18 10 ESE 1009,7 45 0 0,0
13.08.2018 15:00:00 16,1 9,0 - - 18 10 E 1009,8 50 24 0,0
13.08.2018 14:00:00 16,1 10,1 - - 18 10 ESE 1010,0 30 36 0,0
13.08.2018 13:00:00 16,3 10,2 - - 22 12 ESE 1010,0 45 42 0,0
13.08.2018 12:00:00 16,3 11,0 - - 18 10 ESE 1010,1 35 24 0,0
13.08.2018 11:00:00 15,7 11,3 - - 18 10 ESE 1009,9 50 0 0,0
13.08.2018 10:00:00 14,9 10,7 14,4 13,7 21 11 ESE 1010,1 40 0 0,0
13.08.2018 09:00:00 14,0 10,0 - - 18 10 E 1010,0 50 0 0,0
13.08.2018 08:00:00 13,4 10,4 - - 15 8 E 1009,9 50 0 0,0
13.08.2018 07:00:00 12,7 10,4 - - 13 7 E 1009,9 50 0 0,0
13.08.2018 06:00:00 12,3 10,1 - - 13 7 E 1009,8 50 0 0,0
13.08.2018 05:00:00 12,3 10,2 - - 15 8 E 1009,9 50 0 0,0
13.08.2018 04:00:00 12,4 10,4 - - 15 8 E 1010,2 50 0 0,0
13.08.2018 03:00:00 12,3 10,6 - - 15 8 E 1010,5 45 0 0,0
13.08.2018 02:00:00 12,0 10,4 - - 11 6 E 1010,7 40 0 0,0
13.08.2018 01:00:00 11,8 10,2 - - 9 5 E 1011,1 40 - 0,0
13.08.2018 00:00:00 11,8 10,2 - - 11 6 E 1011,3 40 0 0,0
12.08.2018 23:00:00 11,3 9,7 - - 13 7 E 1011,4 40 0 0,0
12.08.2018 22:00:00 11,9 9,9 - - 15 8 E 1011,5 50 0 0,0
12.08.2018 21:00:00 12,4 10,2 - - 16 9 E 1011,7 45 0 0,0
12.08.2018 20:00:00 13,3 10,3 - - 21 11 E 1011,7 45 36 0,0
12.08.2018 19:00:00 14,0 10,7 - - 21 11 E 1011,7 30 24 0,0
12.08.2018 18:00:00 13,9 10,2 - - 24 13 E 1011,8 45 0 0,0
12.08.2018 17:00:00 14,2 9,7 - - 24 13 E 1012,0 40 12 0,0
12.08.2018 16:00:00 15,2 10,4 - - 24 13 E 1012,0 29 36 0,0
12.08.2018 15:00:00 16,0 10,9 - - 24 13 E 1012,3 40 48 0,0
12.08.2018 14:00:00 15,1 9,5 - - 24 13 E 1012,5 50 42 0,0
12.08.2018 13:00:00 15,4 9,6 - - 26 14 E 1012,4 35 42 0,0
12.08.2018 12:00:00 15,3 10,0 - - 26 14 E 1012,5 29 54 0,0
12.08.2018 11:00:00 14,6 9,7 - - 26 14 E 1012,8 40 48 0,0
12.08.2018 10:00:00 14,0 9,6 14,5 13,9 24 13 E 1012,7 45 36 0,0
12.08.2018 09:00:00 13,0 9,8 - - 22 12 E 1012,8 45 18 0,0
12.08.2018 08:00:00 12,3 9,9 - - 21 11 E 1012,9 40 42 0,0
12.08.2018 07:00:00 11,4 10,1 - - 18 10 E 1012,9 45 12 0,0
12.08.2018 06:00:00 9,9 9,4 - - 13 7 E 1013,1 40 0 0,2
12.08.2018 05:00:00 9,3 8,7 - - 15 8 E 1013,3 50 0 0,0
12.08.2018 04:00:00 8,8 8,3 - - 13 7 E 1013,6 40 0 0,0
12.08.2018 03:00:00 8,3 7,9 - - 13 7 E 1014,1 35 0 0,0
12.08.2018 02:00:00 8,4 8,0 - - 11 6 E 1014,4 30 0 0,0
12.08.2018 01:00:00 8,2 7,8 - - 11 6 ESE 1015,0 45 - 0,0
12.08.2018 00:00:00 8,6 8,1 - - 13 7 E 1015,5 40 0 0,0
11.08.2018 23:00:00 8,6 8,0 - - 11 6 ESE 1015,8 40 0 0,0
11.08.2018 22:00:00 8,9 8,0 - - 11 6 E 1016,1 40 0 0,0
11.08.2018 21:00:00 9,9 8,5 - - 11 6 ESE 1016,4 50 6 0,0
11.08.2018 20:00:00 11,1 9,4 - - 8 4 ENE 1016,4 40 6 0,0
11.08.2018 19:00:00 12,4 9,6 - - 5 3 E 1016,5 50 0 0,0
11.08.2018 18:00:00 14,4 9,6 - - 9 5 ESE 1016,6 40 36 0,0
11.08.2018 17:00:00 14,9 10,0 - - 9 5 E 1016,8 30 12 0,0
11.08.2018 16:00:00 13,6 9,6 - - 9 5 NE 1016,9 50 0 0,0
11.08.2018 15:00:00 14,1 9,4 - - 15 8 NNE 1016,9 45 12 0,0
11.08.2018 14:00:00 14,3 9,5 - - 18 10 N 1016,9 15 42 0,0
11.08.2018 13:00:00 14,8 8,7 - - 15 8 WNW 1016,9 40 24 0,0
11.08.2018 12:00:00 15,2 9,1 - - 18 10 W 1016,8 35 30 0,0
11.08.2018 11:00:00 13,8 11,2 - - 21 11 WSW 1016,9 40 0 0,0
11.08.2018 10:00:00 12,8 11,1 14,7 14,0 22 12 WSW 1017,0 40 0 0,6
11.08.2018 09:00:00 13,7 11,3 - - 21 11 WSW 1016,9 50 18 0,0
11.08.2018 08:00:00 11,8 10,6 - - 13 7 W 1016,8 40 12 0,4
11.08.2018 07:00:00 11,9 10,7 - - 11 6 WSW 1016,7 35 30 0,0
11.08.2018 06:00:00 9,2 8,6 - - 15 8 WSW 1016,4 45 0 0,0
11.08.2018 05:00:00 9,1 8,3 - - 13 7 W 1016,4 45 0 0,0
11.08.2018 04:00:00 9,9 9,0 - - 15 8 WSW 1016,4 50 0 0,0
11.08.2018 03:00:00 11,0 9,5 - - 18 10 W 1016,6 45 0 0,0
11.08.2018 02:00:00 11,2 9,9 - - 11 6 WSW 1016,6 50 0 0,0
11.08.2018 01:00:00 11,3 10,2 - - 13 7 WSW 1016,6 45 - 0,0
11.08.2018 00:00:00 11,2 10,2 - - 11 6 SSW 1016,6 50 0 0,0
10.08.2018 23:00:00 11,0 10,3 - - 9 5 SSE 1016,5 50 0 0,2
10.08.2018 22:00:00 11,1 10,3 - - 9 5 SSE 1016,2 45 0 0,0
10.08.2018 21:00:00 11,6 10,7 - - 5 3 S 1015,7 50 0 1,0
10.08.2018 20:00:00 12,1 9,9 - - 11 6 SSE 1015,2 50 0 0,0
10.08.2018 19:00:00 13,5 10,0 - - 5 3 ESE 1015,0 50 30 0,0
10.08.2018 18:00:00 14,6 9,1 - - 16 9 N 1014,6 50 6 0,0
10.08.2018 17:00:00 13,8 9,9 - - 15 8 N 1014,1 50 0 0,0
10.08.2018 16:00:00 14,0 10,0 - - 15 8 N 1013,7 35 0 0,0
10.08.2018 15:00:00 14,6 9,8 - - 18 10 N 1013,3 40 12 0,0
10.08.2018 14:00:00 15,2 10,9 - - 21 11 N 1012,8 30 6 0,0
10.08.2018 13:00:00 14,3 10,2 - - 15 8 N 1012,3 45 0 0,0
10.08.2018 12:00:00 14,6 10,0 - - 11 6 N 1011,8 45 6 0,0
10.08.2018 11:00:00 14,2 10,1 - - 13 7 NNW 1011,7 50 24 0,0
10.08.2018 10:00:00 14,5 10,5 15,0 14,0 11 6 NNW 1011,4 45 60 0,0
10.08.2018 09:00:00 13,5 9,6 - - 11 6 NNW 1011,2 35 60 0,0
10.08.2018 08:00:00 12,8 11,3 - - 8 4 NW 1011,0 50 54 0,0
10.08.2018 07:00:00 10,4 10,3 - - 0 0 N 1010,9 35 54 0,2
10.08.2018 06:00:00 8,4 8,2 - - 5 3 WSW 1010,7 17 0 0,0
10.08.2018 05:00:00 8,1 7,7 - - 5 3 WSW 1010,7 19 0 0,0
10.08.2018 04:00:00 8,9 8,5 - - 9 5 WSW 1010,7 30 0 0,0
10.08.2018 03:00:00 7,9 7,3 - - 5 3 WSW 1010,7 26 0 0,0
10.08.2018 02:00:00 8,6 8,0 - - 8 4 SSW 1011,0 28 0 0,0
10.08.2018 01:00:00 9,2 8,6 - - 8 4 WSW 1011,0 29 - 0,0
10.08.2018 00:00:00 10,1 9,4 - - 9 5 SW 1011,0 24 0 0,0
09.08.2018 23:00:00 10,3 9,5 - - 11 6 SW 1011,0 27 0 0,0
09.08.2018 22:00:00 10,4 9,6 - - 11 6 S 1010,6 30 0 0,0
09.08.2018 21:00:00 11,9 9,4 - - 9 5 SSW 1010,5 40 12 0,0
09.08.2018 20:00:00 14,4 9,5 - - 11 6 WSW 1010,4 40 42 0,0
09.08.2018 19:00:00 14,1 9,5 - - 15 8 W 1010,1 26 6 0,0
09.08.2018 18:00:00 14,2 10,2 - - 16 9 W 1010,0 12 6 0,0
09.08.2018 17:00:00 15,9 8,6 - - 11 6 SW 1009,6 45 24 0,0
09.08.2018 16:00:00 15,0 8,7 - - 18 10 WSW 1009,1 40 12 0,2
09.08.2018 15:00:00 14,1 9,8 - - 18 10 SSW 1008,8 23 0 0,0
09.08.2018 14:00:00 15,9 8,4 - - 24 13 SSW 1008,2 40 30 0,0
09.08.2018 13:00:00 15,8 9,6 - - 26 14 S 1007,8 28 36 0,0
09.08.2018 12:00:00 14,7 8,2 - - 28 15 SSW 1007,8 45 54 0,0
09.08.2018 11:00:00 15,1 10,1 - - 29 16 S 1007,8 21 60 0,0
09.08.2018 10:00:00 14,0 9,3 15,2 14,0 29 16 S 1007,7 26 60 0,0
09.08.2018 09:00:00 13,2 9,6 - - 29 16 SSW 1007,8 30 60 0,0
09.08.2018 08:00:00 12,1 9,7 - - 24 13 S 1007,6 35 54 0,0
09.08.2018 07:00:00 10,5 9,2 - - 13 7 S 1007,5 40 54 0,0
09.08.2018 06:00:00 8,2 7,0 - - 16 9 S 1007,4 40 0 0,0
09.08.2018 05:00:00 9,3 7,8 - - 16 9 SSW 1007,4 50 0 0,0
09.08.2018 04:00:00 8,3 6,8 - - 16 9 S 1007,4 45 0 0,0
09.08.2018 03:00:00 9,1 7,5 - - 16 9 SSW 1007,1 45 0 0,0
09.08.2018 02:00:00 8,9 7,3 - - 21 11 SW 1007,0 40 0 0,0
09.08.2018 01:00:00 9,4 8,0 - - 15 8 SW 1006,8 35 - 0,0
09.08.2018 00:00:00 10,7 10,0 - - 18 10 SW 1006,4 45 0 0,0
08.08.2018 23:00:00 10,9 9,7 - - 13 7 S 1006,2 45 0 0,0
08.08.2018 22:00:00 10,7 9,9 - - 16 9 S 1005,9 50 0 0,0
08.08.2018 21:00:00 12,2 11,4 - - 11 6 S 1005,6 30 0 0,4
08.08.2018 20:00:00 13,0 10,9 - - 9 5 SSE 1005,1 50 24 0,0

tt = Température de l'air
td = dewpoint
tt -20cm = Température de l'air -20cm
tt -100cm = Température de l'air -100cm
ff = Vitesse du vent
dd = Direction du vent
ppp = reduced air pressure
vv = visibility
sd = Ensoleillement
rr = Quantités de précipitations

stations d'obs. à proximité